Theta_e
292 291 285 284 285 285 284 281 282 286 286 283 283 284 287 289 288 287 287 288 289 290 293 294 295 295 294 293 293 293 292 292 291 289 288 288 287 289 289 291 293 293 293 294
292 286 287 289 288 285 283 281 280 285 285 283 282 282 286 288 287 286 286 287 289 289 291 293 293 292 292 292 292 293 293 292 291 290 289 288 287 288 289 290 291 292 293 294
286 287 289 287 285 283 283 281 279 278 283 283 280 279 283 285 287 288 288 289 290 290 290 291 292 291 291 291 291 293 293 292 291 291 290 288 288 288 288 289 290 291 292 292
285 288 287 284 282 284 280 284 282 280 276 272 279 269 281 282 284 286 287 286 287 288 291 291 291 290 291 292 293 293 293 292 292 290 288 286 285 284 287 288 289 290 291 291
284 284 282 282 283 285 280 284 279 278 273 272 275 269 280 281 281 283 285 287 287 288 289 290 290 291 292 292 291 291 291 291 291 290 287 285 284 286 288 288 288 288 289 289
283 288 285 284 285 284 284 279 279 276 273 266 269 270 276 278 281 283 286 286 287 286 287 288 288 289 289 290 290 290 290 290 290 287 286 285 285 286 286 286 286 286 286 286
281 281 284 286 280 283 280 274 270 270 268 270 265 269 275 282 283 284 284 284 285 286 285 286 285 287 287 286 287 289 289 287 287 285 285 286 286 286 285 285 285 285 284 285
276 275 279 284 280 278 278 274 270 265 268 269 266 267 278 280 282 283 285 285 285 284 286 286 286 286 285 285 285 286 286 285 284 283 284 286 286 285 285 286 286 285 285 285
276 276 282 282 283 280 278 270 275 268 263 265 272 276 282 280 277 281 282 283 283 284 285 286 287 286 286 285 284 284 283 282 282 284 284 285 285 284 284 286 286 285 286 286
279 272 278 281 282 280 277 278 270 270 263 263 270 269 274 274 272 275 280 278 281 283 284 285 285 286 285 284 283 283 281 281 282 284 284 285 284 284 286 286 285 285 286 286
280 275 274 278 274 273 272 271 271 272 273 266 265 272 278 274 274 273 276 280 278 278 282 282 283 284 283 283 282 281 280 280 282 283 283 283 283 285 285 285 285 285 286 287
281 280 271 274 280 281 278 275 277 270 267 269 270 269 278 276 275 273 274 279 279 279 282 281 281 282 281 281 282 279 279 280 282 283 283 282 283 284 284 284 284 286 286 287
281 274 268 273 275 277 273 278 278 274 275 268 267 271 276 273 272 273 275 279 281 280 279 280 278 280 279 280 279 278 278 280 281 281 281 281 281 282 282 283 284 285 286 286
284 279 272 271 272 273 271 275 277 274 267 270 274 275 277 277 275 278 279 279 280 278 279 276 274 274 275 275 273 273 276 279 280 280 280 279 281 282 282 283 284 284 285 285
282 274 276 277 277 276 275 274 275 272 274 270 276 275 280 282 279 279 280 276 277 278 275 275 274 274 273 272 271 272 271 274 274 275 273 276 279 282 282 282 283 284 284 284
283 275 272 268 278 278 276 278 277 277 276 275 276 276 284 285 284 284 283 277 277 278 276 277 275 274 275 275 273 271 269 270 271 270 272 272 280 280 281 282 282 283 283 283
280 275 269 272 275 270 269 274 278 278 277 278 274 279 283 281 276 278 278 276 279 279 278 277 278 277 275 275 272 271 269 267 268 268 270 274 280 274 277 281 282 282 282 283
280 278 277 273 268 268 276 280 280 279 280 281 281 282 281 278 277 277 276 275 277 278 278 278 277 273 272 269 268 266 265 265 266 267 269 277 280 280 279 281 281 281 282 281
284 280 275 272 271 274 277 277 276 275 277 282 281 283 284 278 279 281 282 283 282 279 280 279 276 272 270 270 266 265 263 264 266 268 269 273 279 280 280 280 281 281 281 278
281 282 276 274 270 266 275 278 279 281 274 282 283 282 282 280 274 279 284 283 283 283 282 281 281 279 277 276 273 270 267 266 271 271 272 270 276 280 280 280 280 281 280 278
268 274 273 273 272 274 279 277 279 270 275 281 281 281 281 280 282 283 283 282 282 282 281 281 280 279 278 277 276 275 273 271 275 277 275 274 273 278 280 280 280 279 278 276
274 273 272 272 271 269 279 276 276 280 281 279 279 278 281 283 283 282 282 282 282 282 282 282 280 279 279 277 276 275 274 276 276 277 278 276 275 278 278 273 273 274 277 275
273 277 274 275 275 281 281 281 282 284 281 280 279 280 281 280 280 281 281 281 281 281 282 280 280 279 277 276 275 275 275 276 274 274 273 273 274 277 277 274 275 274 274 274
277 279 275 276 280 282 284 283 283 282 281 283 283 282 282 282 282 281 279 279 279 279 280 275 274 275 275 274 275 275 273 273 272 272 272 272 272 273 273 276 276 274 272 272
276 277 275 275 279 281 282 283 284 284 284 283 283 282 283 282 281 281 281 280 280 279 278 274 276 276 276 273 273 272 273 272 272 272 272 273 273 273 273 275 274 275 275 277
275 273 271 271 278 278 279 283 285 284 285 285 284 284 283 282 282 282 282 282 280 279 277 276 277 276 277 273 273 272 273 273 272 273 273 273 273 272 274 274 276 281 280 281
Wind_Speed
3 1 3 6 4 3 4 3 5 5 3 2 7 13 18 13 8 8 9 9 9 6 6 7 7 8 7 4 4 5 4 3 1 2 2 3 3 3 3 4 6 6 5 6
4 3 5 3 3 2 3 1 4 6 3 2 8 16 23 18 9 2 2 6 7 6 8 7 6 5 4 5 6 6 4 5 3 2 2 2 3 4 5 4 6 8 7 5
3 4 2 3 4 3 3 1 3 3 10 6 8 10 3 3 6 6 4 8 7 7 7 6 6 6 6 7 8 6 7 4 2 3 2 3 3 4 3 4 4 4 6 6
3 3 2 4 1 3 1 6 4 4 5 3 4 7 8 5 6 5 6 6 7 7 7 7 7 7 8 8 7 6 3 4 4 3 3 4 4 6 4 5 5 5 6 7
1 2 1 2 3 3 2 4 2 2 1 5 1 3 9 4 6 7 8 7 8 9 9 7 6 5 5 4 3 3 3 3 3 3 4 4 5 5 5 6 9 8 7 7
2 0 4 4 4 3 1 2 3 1 1 2 3 3 7 1 3 7 7 8 8 7 7 6 4 1 4 4 4 5 5 5 3 3 5 6 7 7 7 8 8 7 5 7
3 2 3 3 2 3 3 2 2 2 1 5 3 1 12 3 3 8 8 9 8 7 5 2 1 2 4 5 5 4 3 3 2 4 5 6 6 6 8 8 7 10 9 7
2 5 1 3 3 2 1 2 3 4 3 4 3 7 8 1 4 4 6 8 8 5 5 8 5 2 3 4 4 4 3 3 4 5 6 5 6 4 5 7 8 8 8 8
2 2 3 5 3 2 2 1 1 1 1 3 6 7 7 3 4 3 6 7 7 2 4 8 6 6 6 5 4 2 2 4 5 6 5 6 6 6 5 10 9 7 9 9
2 4 2 2 1 3 1 1 3 2 2 5 6 4 7 4 4 3 7 6 4 2 7 7 7 6 5 5 3 1 3 5 5 5 5 5 5 6 9 9 10 10 10 11
3 3 2 1 6 6 2 2 2 1 3 5 3 7 5 8 6 9 7 6 7 6 8 7 7 6 6 5 5 5 4 4 4 5 5 6 6 8 9 9 9 12 11 11
3 1 4 7 5 5 2 2 5 4 6 4 2 10 4 6 7 5 7 8 6 6 9 7 6 6 6 6 5 3 2 3 3 4 5 6 6 8 9 9 11 10 10 10
4 3 3 4 0 2 3 5 4 2 1 7 2 8 1 2 4 7 8 9 8 6 7 7 4 6 6 5 3 1 3 4 3 5 5 6 7 10 10 9 11 9 10 9
1 4 8 6 5 5 4 6 9 7 3 4 18 17 9 8 8 8 8 8 7 6 8 5 4 5 5 5 4 3 4 3 3 5 5 6 8 9 8 9 9 9 9 9
4 7 7 13 12 8 8 9 13 12 17 10 22 19 15 13 7 7 8 5 6 9 6 6 5 5 5 5 4 4 4 4 2 4 3 5 6 8 9 9 8 8 8 8
5 6 2 5 11 15 19 18 18 21 18 23 25 33 25 18 12 15 13 7 8 8 7 7 6 5 7 7 7 5 5 5 3 4 5 4 6 8 7 6 7 7 7 7
5 4 2 19 6 4 11 20 24 20 16 24 22 32 15 16 8 10 9 7 9 9 8 7 8 8 7 8 7 8 7 4 3 4 4 4 6 5 6 6 5 5 7 7
13 10 8 12 2 19 11 15 20 28 25 23 20 22 16 9 5 5 6 6 8 8 8 8 7 5 6 4 4 4 4 4 4 5 4 4 5 7 5 6 4 4 4 5
19 18 10 12 14 18 23 4 7 10 18 18 22 27 22 2 2 11 11 13 13 8 7 7 6 5 4 6 6 5 4 4 4 6 5 4 4 5 5 4 6 5 4 3
9 16 15 15 11 15 4 3 8 10 26 11 17 19 15 9 4 10 8 9 10 9 7 7 7 5 7 7 7 6 6 6 7 6 6 5 4 4 4 3 5 5 3 3
4 6 20 18 18 21 5 6 5 5 6 7 6 9 8 10 11 6 9 7 8 7 8 7 7 8 8 7 9 8 6 10 8 6 5 4 4 4 5 4 2 4 4 3
16 11 8 11 21 30 5 4 15 12 3 1 3 2 7 12 11 8 10 8 7 7 6 7 7 7 7 7 8 8 9 6 6 6 5 4 3 2 2 2 2 3 3 2
19 16 11 11 13 4 6 7 14 12 3 3 2 3 3 2 4 6 8 7 7 8 7 5 7 7 6 7 8 9 7 7 6 6 5 4 3 2 2 1 1 1 2 2
18 15 18 21 27 28 21 7 6 4 7 8 5 6 3 6 7 7 5 3 5 6 8 5 5 7 7 7 9 11 6 7 7 7 6 4 4 4 3 1 1 2 2 1
11 15 20 26 21 12 13 15 14 14 10 9 10 8 11 8 9 9 8 8 9 8 6 5 7 8 10 7 10 8 8 9 8 6 6 5 4 4 3 2 3 2 2 2
8 19 16 20 21 21 24 23 22 20 20 13 11 18 13 10 15 10 12 10 8 8 5 5 8 8 10 7 8 8 10 11 10 8 6 6 5 4 4 3 2 6 4 4
Wind_Direction
68 67 49 49 46 15 342 334 300 312 110 331 261 282 282 275 276 263 222 215 210 208 97 87 95 106 113 134 177 210 222 250 216 267 293 294 279 299 294 291 286 296 282 277
22 75 56 59 16 351 309 63 287 293 74 307 289 290 274 282 258 285 40 76 82 81 68 79 100 122 167 203 215 222 232 239 245 230 258 256 265 259 258 266 269 262 265 286
61 65 33 10 31 339 269 224 336 318 339 258 300 284 230 82 106 92 36 68 109 131 141 146 166 187 202 217 229 226 230 228 259 270 277 280 288 293 299 295 296 303 302 291
63 59 34 35 315 50 315 13 29 7 20 284 50 283 313 156 165 156 155 163 133 116 138 163 186 208 220 228 218 216 206 244 246 286 283 279 277 289 280 292 291 298 293 286
20 35 38 66 48 14 51 4 12 67 310 24 173 71 263 130 156 163 160 165 133 150 165 178 195 224 251 261 238 203 221 260 260 269 277 278 277 273 288 292 294 296 297 301
77 31 6 34 81 31 60 343 230 102 168 344 240 124 285 89 120 134 137 143 141 140 131 97 63 281 264 267 258 225 217 239 259 294 282 281 281 290 294 297 299 303 316 308
175 90 88 337 262 137 21 5 312 327 348 230 266 294 245 284 50 151 160 148 132 149 114 127 100 295 293 303 302 297 226 274 308 307 295 285 286 293 294 302 298 301 297 290
1 311 63 348 38 356 146 87 146 247 322 290 325 242 255 14 37 20 69 122 132 177 233 236 271 328 288 297 304 292 306 315 320 295 288 294 291 279 275 285 294 287 286 284
320 254 116 25 7 55 170 217 18 68 57 39 232 281 304 22 344 226 152 160 197 153 305 292 309 327 318 312 302 313 335 302 294 293 297 291 288 294 293 299 289 284 282 280
43 306 8 124 206 54 154 10 42 325 316 277 282 260 238 268 270 256 193 214 190 232 304 294 296 291 292 293 278 257 261 263 268 286 293 309 304 291 299 289 284 287 284 278
120 116 257 117 203 178 122 249 266 50 178 207 287 267 223 196 203 207 213 207 245 266 263 260 263 266 272 258 240 232 240 267 292 307 326 300 291 295 299 295 297 293 283 277
171 209 261 221 71 20 324 251 178 150 263 245 176 270 219 215 190 182 231 251 255 243 264 260 253 256 258 247 225 216 273 284 307 333 311 305 308 307 309 305 302 295 295 290
179 251 316 310 152 105 219 200 227 75 285 221 177 261 17 323 294 248 236 265 270 262 268 261 262 258 257 250 213 224 268 283 330 325 316 316 312 312 312 308 304 308 305 304
190 238 205 220 184 131 200 205 205 171 197 229 231 266 271 272 232 253 250 247 271 268 275 265 266 251 243 227 200 231 260 274 297 306 305 301 308 314 308 307 311 313 311 312
213 231 239 252 262 247 217 213 204 204 219 212 262 253 249 245 226 234 241 252 279 283 282 264 263 254 233 222 221 223 229 235 240 274 288 284 298 313 320 322 318 317 317 319
188 261 188 261 257 256 255 239 231 229 225 240 255 265 259 274 273 271 270 248 257 271 265 256 248 240 237 220 216 211 219 221 201 263 271 280 304 319 324 318 319 322 318 322
214 205 163 268 231 306 266 227 229 235 219 228 240 248 280 265 221 233 247 209 237 250 258 254 243 233 227 216 199 205 211 193 208 250 270 278 313 316 305 331 317 325 328 332
232 227 227 263 119 253 252 182 209 223 233 230 250 260 250 229 212 222 213 192 235 245 251 253 239 237 229 199 184 162 172 198 212 249 261 283 313 319 324 341 335 337 328 338
216 233 249 245 235 275 261 206 175 190 251 227 231 247 253 223 28 275 221 218 225 218 228 232 221 215 192 192 190 176 196 205 212 237 241 239 281 306 322 337 348 352 334 335
240 230 228 238 250 251 47 207 276 189 263 220 228 244 240 133 194 247 168 175 206 225 225 232 221 204 202 208 177 180 210 210 223 222 226 213 237 276 294 309 329 343 339 322
176 220 235 241 246 252 188 150 63 183 277 225 231 241 188 190 208 204 149 169 188 202 223 226 197 209 217 190 172 204 196 221 214 198 191 214 211 244 274 302 309 320 324 340
245 245 232 236 246 253 143 40 213 236 256 6 336 284 220 219 193 191 165 176 197 227 239 222 215 225 218 192 181 209 217 209 183 171 192 204 201 228 269 250 290 317 333 353
251 237 247 220 252 283 225 237 228 241 249 254 272 313 278 296 258 217 178 192 219 226 239 213 208 235 221 191 187 210 224 170 166 170 194 187 205 197 239 227 19 335 328 346
276 270 269 278 267 261 249 245 287 279 252 276 224 256 273 247 221 248 256 240 234 236 238 208 197 233 244 201 201 212 176 162 162 184 191 186 183 178 218 220 82 85 338 345
275 298 284 277 287 287 293 292 280 270 268 279 281 224 223 234 244 228 242 235 238 237 225 182 204 221 241 196 211 196 178 159 175 182 185 183 174 182 164 162 155 135 264 161
267 267 264 268 273 274 282 291 284 256 250 248 255 274 256 204 231 225 242 240 237 244 227 215 222 221 239 210 211 193 179 175 169 182 185 179 170 178 162 160 101 117 120 109